Retour au catalogue

STARLINK-31455

ActifCommunicationsVLEO
NORAD 59309·PAYLOAD·🇺🇸 United States

Lancé Mar 24, 2024 depuis Cape Canaveral Space Force Station

Loading…

Prochains Passages (prochaines 24 heures)

TLE

FraisSource: CelesTrak SupGP

Époque: Sep 15, 2026, 02:12 UTC

1 59309C 24056P   26258.09215278 -.00042021  00000+0 -15221-2 0  2581
2 59309  43.0024 237.8811 0001266 266.3241 244.0151 15.27596654    18

Suivez STARLINK-31455 en temps réel avec AllMySat

Download on the App Store